TimePDT,TemperatureF,Dew PointF,Humidity,Sea Level PressureIn,VisibilityMPH,Wind Direction,Wind SpeedMPH,Gust SpeedMPH,PrecipitationIn,Events,Conditions,WindDirDegrees,DateUTC
12:53 AM,46.9,43.0,86,30.19,10.0,WSW,3.5,-,N/A,,Overcast,240,2013-03-16 07:53:00
1:53 AM,46.9,43.0,86,30.19,10.0,SSW,6.9,-,N/A,,Scattered Clouds,210,2013-03-16 08:53:00
2:53 AM,46.9,44.1,90,30.19,10.0,SW,6.9,-,N/A,,Overcast,230,2013-03-16 09:53:00
3:53 AM,48.0,44.1,86,30.18,10.0,SW,6.9,-,N/A,,Overcast,230,2013-03-16 10:53:00
4:53 AM,48.0,44.1,86,30.17,10.0,WSW,10.4,77.1,N/A,,Overcast,250,2013-03-16 11:53:00
5:53 AM,48.0,44.1,86,30.16,10.0,SW,4.6,-,N/A,,Overcast,220,2013-03-16 12:53:00
6:51 AM,46.4,44.6,93,30.14,10.0,SSW,3.5,-,N/A,,Overcast,200,2013-03-16 13:51:00
6:53 AM,46.9,44.1,90,30.14,10.0,SSW,3.5,-,N/A,,Overcast,200,2013-03-16 13:53:00
7:07 AM,46.4,42.8,87,30.13,10.0,South,4.6,-,N/A,,Overcast,180,2013-03-16 14:07:00
7:37 AM,48.2,44.6,87,30.14,4.0,SW,8.1,-,0.00,Rain,Light Rain,230,2013-03-16 14:37:00
7:53 AM,46.9,44.1,90,30.14,4.0,SW,6.9,-,0.00,,Overcast,220,2013-03-16 14:53:00
8:46 AM,48.2,44.6,87,30.15,10.0,SW,5.8,-,N/A,,Overcast,230,2013-03-16 15:46:00
8:53 AM,48.0,43.0,83,30.15,10.0,SW,5.8,-,N/A,,Overcast,220,2013-03-16 15:53:00
9:53 AM,48.9,43.0,80,30.15,10.0,SW,8.1,-,N/A,,Overcast,220,2013-03-16 16:53:00
10:53 AM,50.0,44.1,80,30.14,10.0,SSW,6.9,-,N/A,,Overcast,210,2013-03-16 17:53:00
11:53 AM,50.0,42.1,74,30.13,8.0,SW,9.2,-,0.01,Rain,Light Rain,230,2013-03-16 18:53:00
12:08 PM,48.2,44.6,87,30.12,10.0,SW,9.2,-,0.00,Rain,Light Rain,230,2013-03-16 19:08:00
12:20 PM,50.0,44.6,82,30.12,10.0,SW,10.4,-,0.00,Rain,Light Rain,230,2013-03-16 19:20:00
12:53 PM,48.9,44.1,83,30.12,6.0,WSW,12.7,-,0.01,Rain,Light Rain,250,2013-03-16 19:53:00
1:53 PM,50.0,42.1,74,30.09,10.0,WSW,10.4,-,0.01,,Overcast,240,2013-03-16 20:53:00
2:53 PM,50.0,43.0,77,30.07,10.0,SW,9.2,-,0.00,Rain,Light Rain,230,2013-03-16 21:53:00
3:11 PM,48.2,42.8,82,30.06,8.0,WSW,8.1,-,0.01,Rain,Light Rain,240,2013-03-16 22:11:00
3:53 PM,48.9,43.0,80,30.04,10.0,West,12.7,-,0.01,Rain,Light Rain,260,2013-03-16 22:53:00
4:33 PM,48.2,41.0,76,30.04,10.0,West,13.8,23.0,0.04,Rain,Light Rain,270,2013-03-16 23:33:00
4:53 PM,46.0,37.0,71,30.06,10.0,NW,19.6,31.1,0.05,Rain,Light Rain,310,2013-03-16 23:53:00
5:00 PM,46.4,35.6,66,30.06,10.0,NW,23.0,28.8,0.00,Rain,Light Rain,310,2013-03-17 00:00:00
5:53 PM,44.1,37.0,76,30.06,10.0,WSW,8.1,-,0.00,Rain,Light Rain,240,2013-03-17 00:53:00
6:53 PM,42.1,36.0,79,30.07,10.0,SW,13.8,-,0.00,,Partly Cloudy,230,2013-03-17 01:53:00
7:53 PM,39.9,36.0,86,30.09,10.0,SSW,6.9,-,0.00,,Partly Cloudy,210,2013-03-17 02:53:00
8:53 PM,42.1,37.9,85,30.11,10.0,SW,9.2,-,0.00,Rain,Light Rain,220,2013-03-17 03:53:00
9:10 PM,42.8,37.4,81,30.11,10.0,SW,11.5,-,0.01,Rain,Light Rain,220,2013-03-17 04:10:00
9:17 PM,42.8,37.4,81,30.11,10.0,SW,11.5,-,0.01,,Mostly Cloudy,220,2013-03-17 04:17:00
9:53 PM,42.1,36.0,79,30.12,10.0,West,11.5,-,0.01,Rain,Light Rain,260,2013-03-17 04:53:00
10:53 PM,41.0,33.1,73,30.16,10.0,Calm,Calm,-,0.00,,Scattered Clouds,0,2013-03-17 05:53:00
11:53 PM,39.0,33.1,79,30.18,10.0,SW,10.4,-,N/A,,Scattered Clouds,230,2013-03-17 06:53:00